| time (UTC) | temp C | wind direction | speed KPH | gust KPH | rain 1hr cm | rain 24hr cm | rain mn cm | humidity % | barometer mb |
| 20260901104802 | 30 | 4.8 | 0.0 | 0.00 | 0.00 | 0.00 | 25 | 1016.0 | |
| 20260901103302 | 30 | 4.8 | 0.0 | 0.00 | 0.00 | 0.00 | 25 | 1016.0 | |
| 20260901101858 | 30 | 1.6 | 0.0 | 0.00 | 0.00 | 0.00 | 25 | 1016.0 | |
| 20260901100304 | 30 | 1.6 | 0.0 | 0.00 | 0.00 | 0.00 | 25 | 1016.0 | |
| 20260901094803 | 28 | 3.2 | 0.0 | 0.00 | 0.00 | 0.00 | 27 | 1016.0 | |
| 20260901093302 | 28 | 3.2 | 0.0 | 0.00 | 0.00 | 0.00 | 27 | 1016.0 | |
| 20260901091802 | 27 | 90 | 8.0 | 0.0 | 0.00 | 0.00 | 0.00 | 28 | 1017.0 |
| 20260901090303 | 27 | 90 | 8.0 | 0.0 | 0.00 | 0.00 | 0.00 | 28 | 1017.0 |
| 20260901084802 | 27 | 40 | 8.0 | 0.0 | 0.00 | 0.00 | 0.00 | 32 | 1017.0 |
| 20260901083311 | 27 | 40 | 8.0 | 0.0 | 0.00 | 0.00 | 0.00 | 32 | 1017.0 |
| 20260901081801 | 27 | 50 | 9.7 | 0.0 | 0.00 | 0.00 | 0.00 | 39 | 1017.0 |
| 20260901080304 | 27 | 50 | 9.7 | 0.0 | 0.00 | 0.00 | 0.00 | 39 | 1017.0 |
| 20260901074808 | 25 | 60 | 9.7 | 0.0 | 0.00 | 0.00 | 0.00 | 47 | 1017.0 |
| 20260901073302 | 25 | 60 | 9.7 | 0.0 | 0.00 | 0.00 | 0.00 | 47 | 1017.0 |
| 20260901071801 | 23 | 50 | 8.0 | 0.0 | 0.00 | 0.00 | 0.00 | 50 | 1017.0 |
| 20260901070301 | 23 | 50 | 8.0 | 0.0 | 0.00 | 0.00 | 0.00 | 50 | 1017.0 |
| 20260901064802 | 22 | 30 | 9.7 | 0.0 | 0.00 | 0.00 | 0.00 | 57 | 1017.0 |
| 20260901063302 | 22 | 30 | 9.7 | 0.0 | 0.00 | 0.00 | 0.00 | 57 | 1017.0 |
| 20260901061802 | 21 | 350 | 9.7 | 0.0 | 0.00 | 0.00 | 0.00 | 57 | 1017.0 |
| 20260901060302 | 21 | 350 | 9.7 | 0.0 | 0.00 | 0.00 | 0.00 | 57 | 1017.0 |
| 20260901054802 | 20 | 20 | 8.0 | 0.0 | 0.00 | 0.00 | 0.00 | 64 | 1017.0 |
| 20260901053302 | 20 | 20 | 8.0 | 0.0 | 0.00 | 0.00 | 0.00 | 64 | 1017.0 |
| 20260901051802 | 17 | 30 | 9.7 | 0.0 | 0.00 | 0.00 | 0.00 | 73 | 1016.0 |
| 20260901050302 | 17 | 30 | 9.7 | 0.0 | 0.00 | 0.00 | 0.00 | 73 | 1016.0 |
| 20260901044825 | 17 | 20 | 11.3 | 0.0 | 0.00 | 0.00 | 0.00 | 73 | 1016.0 |
| 20260901043302 | 17 | 20 | 11.3 | 0.0 | 0.00 | 0.00 | 0.00 | 73 | 1016.0 |
| 20260901041802 | 17 | 30 | 9.7 | 0.0 | 0.00 | 0.00 | 0.00 | 77 | 1016.0 |
| 20260901040301 | 17 | 30 | 9.7 | 0.0 | 0.00 | 0.00 | 0.00 | 77 | 1016.0 |
| 20260901034802 | 16 | 50 | 4.8 | 0.0 | 0.00 | 0.00 | 0.00 | 83 | 1016.0 |
| 20260901033302 | 16 | 50 | 4.8 | 0.0 | 0.00 | 0.00 | 0.00 | 83 | 1016.0 |
| 20260901031801 | 17 | 90 | 4.8 | 0.0 | 0.00 | 0.00 | 0.00 | 73 | 1016.0 |
| 20260901030301 | 17 | 90 | 4.8 | 0.0 | 0.00 | 0.00 | 0.00 | 73 | 1016.0 |
| 20260901024802 | 17 | 60 | 4.8 | 0.0 | 0.00 | 0.00 | 0.00 | 73 | 1016.0 |
| 20260901023301 | 17 | 60 | 4.8 | 0.0 | 0.00 | 0.00 | 0.00 | 73 | 1016.0 |
| 20260901021802 | 17 | 60 | 4.8 | 0.0 | 0.00 | 0.00 | 0.00 | 68 | 1016.0 |
| 20260901020301 | 17 | 60 | 4.8 | 0.0 | 0.00 | 0.00 | 0.00 | 68 | 1016.0 |
| 20260901014802 | 17 | 40 | 8.0 | 0.0 | 0.00 | 0.00 | 0.00 | 68 | 1016.0 |
| 20260901013302 | 17 | 40 | 8.0 | 0.0 | 0.00 | 0.00 | 0.00 | 68 | 1016.0 |
| 20260901011802 | 17 | 60 | 4.8 | 0.0 | 0.00 | 0.00 | 0.00 | 68 | 1016.0 |
| 20260901010303 | 17 | 60 | 4.8 | 0.0 | 0.00 | 0.00 | 0.00 | 68 | 1016.0 |
| 20260901004802 | 17 | 50 | 4.8 | 0.0 | 0.00 | 0.00 | 0.00 | 68 | 1017.0 |
| 20260901003302 | 17 | 50 | 4.8 | 0.0 | 0.00 | 0.00 | 0.00 | 68 | 1017.0 |
| 20260901001801 | 18 | 10 | 11.3 | 0.0 | 0.00 | 0.00 | 0.00 | 60 | 1017.0 |
| 20260901000303 | 18 | 10 | 11.3 | 0.0 | 0.00 | 0.00 | 0.00 | 60 | 1017.0 |
| 20260831234802 | 20 | 10 | 12.9 | 0.0 | 0.00 | 0.00 | 0.00 | 56 | 1017.0 |
| 20260831233302 | 20 | 10 | 12.9 | 0.0 | 0.00 | 0.00 | 0.00 | 56 | 1017.0 |
| 20260831231803 | 20 | 30 | 8.0 | 0.0 | 0.00 | 0.00 | 0.00 | 53 | 1017.0 |
| 20260831230302 | 20 | 30 | 8.0 | 0.0 | 0.00 | 0.00 | 0.00 | 53 | 1017.0 |
| 20260831224801 | 20 | 60 | 4.8 | 0.0 | 0.00 | 0.00 | 0.00 | 49 | 1017.0 |
| 20260831223302 | 20 | 60 | 4.8 | 0.0 | 0.00 | 0.00 | 0.00 | 49 | 1017.0 |
| 20260831221802 | 20 | 140 | 4.8 | 0.0 | 0.00 | 0.00 | 0.00 | 53 | 1017.0 |
| 20260831220302 | 20 | 140 | 4.8 | 0.0 | 0.00 | 0.00 | 0.00 | 53 | 1017.0 |
| 20260831214802 | 20 | 3.2 | 0.0 | 0.00 | 0.00 | 0.00 | 56 | 1017.0 | |
| 20260831213302 | 20 | 3.2 | 0.0 | 0.00 | 0.00 | 0.00 | 56 | 1017.0 | |
| 20260831211801 | 20 | 120 | 8.0 | 0.0 | 0.00 | 0.00 | 0.00 | 56 | 1017.0 |
| 20260831210301 | 20 | 120 | 8.0 | 0.0 | 0.00 | 0.00 | 0.00 | 56 | 1017.0 |
| 20260831204803 | 21 | 110 | 8.0 | 0.0 | 0.00 | 0.00 | 0.00 | 50 | 1017.0 |
| 20260831203303 | 21 | 110 | 8.0 | 0.0 | 0.00 | 0.00 | 0.00 | 50 | 1017.0 |
| 20260831201802 | 22 | 130 | 9.7 | 0.0 | 0.00 | 0.00 | 0.00 | 44 | 1017.0 |
| 20260831200301 | 22 | 130 | 9.7 | 0.0 | 0.00 | 0.00 | 0.00 | 44 | 1017.0 |
| 20260831194802 | 22 | 130 | 8.0 | 0.0 | 0.00 | 0.00 | 0.00 | 47 | 1016.0 |
| 20260831193302 | 22 | 130 | 8.0 | 0.0 | 0.00 | 0.00 | 0.00 | 47 | 1016.0 |
| 20260831191802 | 22 | 130 | 9.7 | 0.0 | 0.00 | 0.00 | 0.00 | 41 | 1016.0 |
| 20260831190304 | 22 | 130 | 9.7 | 0.0 | 0.00 | 0.00 | 0.00 | 41 | 1016.0 |
| 20260831184803 | 23 | 140 | 11.3 | 0.0 | 0.00 | 0.00 | 0.00 | 44 | 1016.0 |
| 20260831183302 | 23 | 140 | 11.3 | 0.0 | 0.00 | 0.00 | 0.00 | 44 | 1016.0 |
| 20260831181803 | 23 | 110 | 3.2 | 0.0 | 0.00 | 0.00 | 0.00 | 44 | 1016.0 |
| 20260831180302 | 23 | 110 | 3.2 | 0.0 | 0.00 | 0.00 | 0.00 | 44 | 1016.0 |
| 20260831174802 | 23 | 120 | 3.2 | 0.0 | 0.00 | 0.00 | 0.00 | 44 | 1016.0 |
| 20260831173302 | 23 | 120 | 3.2 | 0.0 | 0.00 | 0.00 | 0.00 | 44 | 1016.0 |
| 20260831171802 | 26 | 130 | 8.0 | 0.0 | 0.00 | 0.00 | 0.00 | 42 | 1016.0 |
| 20260831170304 | 26 | 130 | 8.0 | 0.0 | 0.00 | 0.00 | 0.00 | 42 | 1016.0 |
| 20260831164802 | 27 | 130 | 9.7 | 0.0 | 0.00 | 0.00 | 0.00 | 39 | 1016.0 |
| 20260831163301 | 27 | 130 | 9.7 | 0.0 | 0.00 | 0.00 | 0.00 | 39 | 1016.0 |
| 20260831161802 | 27 | 130 | 9.7 | 0.0 | 0.00 | 0.00 | 0.00 | 35 | 1016.0 |
| 20260831160302 | 27 | 130 | 9.7 | 0.0 | 0.00 | 0.00 | 0.00 | 35 | 1016.0 |
| 20260831154802 | 30 | 110 | 9.7 | 0.0 | 0.00 | 0.00 | 0.00 | 31 | 1016.0 |
| 20260831153302 | 30 | 110 | 9.7 | 0.0 | 0.00 | 0.00 | 0.00 | 31 | 1016.0 |
| 20260831151802 | 31 | 120 | 11.3 | 0.0 | 0.00 | 0.00 | 0.00 | 29 | 1016.0 |
| 20260831150302 | 31 | 120 | 11.3 | 0.0 | 0.00 | 0.00 | 0.00 | 29 | 1016.0 |
| 20260831144802 | 31 | 90 | 11.3 | 0.0 | 0.00 | 0.00 | 0.00 | 27 | 1016.0 |
| 20260831143302 | 31 | 90 | 11.3 | 0.0 | 0.00 | 0.00 | 0.00 | 27 | 1016.0 |
| 20260831141802 | 32 | 90 | 11.3 | 0.0 | 0.00 | 0.00 | 0.00 | 27 | 1016.0 |
| 20260831140309 | 32 | 90 | 11.3 | 0.0 | 0.00 | 0.00 | 0.00 | 27 | 1016.0 |
| 20260831134802 | 31 | 4.8 | 0.0 | 0.00 | 0.00 | 0.00 | 27 | 1016.0 | |
| 20260831133303 | 31 | 4.8 | 0.0 | 0.00 | 0.00 | 0.00 | 27 | 1016.0 | |
| 20260831131802 | 31 | 12.9 | 0.0 | 0.00 | 0.00 | 0.00 | 25 | 1016.0 | |
| 20260831130302 | 31 | 12.9 | 0.0 | 0.00 | 0.00 | 0.00 | 25 | 1016.0 | |
| 20260831124819 | 31 | 100 | 11.3 | 0.0 | 0.00 | 0.00 | 0.00 | 31 | 1017.0 |
| 20260831123301 | 31 | 100 | 11.3 | 0.0 | 0.00 | 0.00 | 0.00 | 31 | 1017.0 |
| 20260831121802 | 31 | 130 | 14.5 | 0.0 | 0.00 | 0.00 | 0.00 | 31 | 1017.0 |
| 20260831120302 | 31 | 130 | 14.5 | 0.0 | 0.00 | 0.00 | 0.00 | 31 | 1017.0 |
| 20260831114802 | 31 | 110 | 12.9 | 0.0 | 0.00 | 0.00 | 0.00 | 31 | 1017.0 |
| 20260831113301 | 31 | 110 | 12.9 | 0.0 | 0.00 | 0.00 | 0.00 | 31 | 1017.0 |
| 20260831111822 | 30 | 80 | 14.5 | 0.0 | 0.00 | 0.00 | 0.00 | 33 | 1017.0 |
| 20260831110302 | 30 | 80 | 14.5 | 0.0 | 0.00 | 0.00 | 0.00 | 33 | 1017.0 |